Location: Владивосток
(43.1151°N, 131.8856°E)
Time: 17:16:49
(UTC+10:00)

DUCHIFAT 1 - Pass Details

Date: 07 July 2022
Orbit: 580 x 596 km, 98.0° (Epoch: 17 August)

Event Time Altitude Azimuth Distance (km) Brightness Sun altitude
Rises 03:32:02 0° 17° (NNE) 2,848 ? -17.3°
Reaches altitude 10° 03:34:15 10° 22° (NNE) 1,943 ? -17.1°
Maximum altitude 03:38:24 55° 101° (E) 720 ? -16.7°
Enters shadow 03:40:57 22° 172° (S) 1,320 ? -16.4°
